"Pseudo-MPEC" for Hayabusa 2

Created 2015 Dec 7 18:58:32 UT using Find_Orb

Astrometry:
Hayabusa 2   KC2015 12 02.71338 16 50 33.54 +31 15 23.8          20.5 R      204
Hayabusa 2   KC2015 12 02.72389 16 50 34.79 +31 15 55.3          20.7 R      204
Hayabusa 2   KC2015 12 02.73430 16 50 37.09 +31 16 27.1          20.9 R      204
Hayabusa 2   KC2015 12 03.21174 17 19 15.78 +35 43 45.0          18.3 R      204
Hayabusa 2   KC2015 12 03.21336 17 19 31.09 +35 47 11.8          17.9 R      204

Station data:
(204) Schiaparelli Observatory (N45.8680 E8.7708)  Italy.   Observers L.
    Buzzi, G. Colombo.  0.60-m f/4.64 reflector + CCD.

Orbital elements:  Hayabusa 2
   Perigee 2015 Dec 3.423547 +/- 0.00165 TT = 10:09:54 (JD 2457359.923547)
Epoch 2015 Dec  3.0 TT = JDT 2457359.5                        Find_Orb
q  9418.66321 +/- 169               (J2000 equatorial)
H   29.3  G 0.15                    Peri.  162.46882 +/- 0.8
                                    Node   240.53635 +/- 0.10
e   1.4970652 +/- 0.0273            Incl.   70.10277 +/- 0.06
From 5 observations 2015 Dec. 2-3 (12.0 hr); mean residual 0".115
Residuals in arcseconds: 
151202 204 .196+ .122-    151202 204 .020- .153+    151203 204 .055+ .096-    
151202 204 .177- .030-    151203 204 .064- .084+    

Ephemerides (geocentric):
Date (UTC) HH   RA              Dec         delta   r     elong  mag  '/hr    PA  
---- -- -- --  ------------   ------------  ------ ------ -----  --- ------ ------
2015 12 02 00  16 51 06.404   +30 19 33.35  617531 .98350  52.4 22??   3.17  22.8 
2015 12 02 01  16 51 12.216   +30 22 33.69  600525 .98356  52.5 22??   3.35  22.8 
2015 12 02 02  16 51 18.381   +30 25 44.32  583505 .98363  52.5 22??   3.55  22.9 
2015 12 02 03  16 51 24.931   +30 29 06.20  566470 .98370  52.6 22??   3.76  22.9 
2015 12 02 04  16 51 31.904   +30 32 40.37  549420 .98376  52.6 22??   3.99  23.0 
2015 12 02 05  16 51 39.342   +30 36 28.04  532354 .98383  52.7 22??   4.25  23.0 
2015 12 02 06  16 51 47.292   +30 40 30.57  515270 .98389  52.8 22??   4.54  23.1 
2015 12 02 07  16 51 55.808   +30 44 49.51  498168 .98396  52.9 22??   4.85  23.1 
2015 12 02 08  16 52 04.953   +30 49 26.63  481046 .98403  52.9 22??   5.20  23.2 
2015 12 02 09  16 52 14.799   +30 54 23.97  463902 .98409  53.0 22??   5.59  23.2 
2015 12 02 10  16 52 25.429   +30 59 43.89  446736 .98416  53.1 22??   6.02  23.3 
2015 12 02 11  16 52 36.941   +31 05 29.15  429545 .98423  53.2 21??   6.51  23.3 
2015 12 02 12  16 52 49.449   +31 11 42.93  412327 .98429  53.3 21??   7.07  23.4 
2015 12 02 13  16 53 03.090   +31 18 29.04  395081 .98436  53.5 21??   7.69  23.4 
2015 12 02 14  16 53 18.024   +31 25 51.96  377804 .98443  53.6 21??   8.41  23.5 
2015 12 02 15  16 53 34.446   +31 33 57.04  360492 .98449  53.7 21??   9.24  23.5 
2015 12 02 16  16 53 52.592   +31 42 50.78  343143 .98456  53.9 21??  10.19  23.6 
2015 12 02 17  16 54 12.751   +31 52 41.04  325753 .98463  54.1 21??  11.31  23.6 
2015 12 02 18  16 54 35.281   +32 03 37.53  308318 .98470  54.2 21??  12.62  23.7 
2015 12 02 19  16 55 00.634   +32 15 52.36  290832 .98476  54.5 21??  14.18  23.8 
2015 12 02 20  16 55 29.384   +32 29 40.78  273290 .98483  54.7 20??  16.06  23.8 
2015 12 02 21  16 56 02.276   +32 45 22.38  255685 .98490  55.0 20??  18.34  23.9 
2015 12 02 22  16 56 40.292   +33 03 22.70  238007 .98497  55.3 20??  21.16  24.0 
2015 12 02 23  16 57 24.761   +33 24 15.71  220247 .98504  55.7 20??  24.71  24.1 
2015 12 03 00  16 58 17.522   +33 48 47.72  202392 .98511  56.1 20??  29.26  24.2 
2015 12 03 01  16 59 21.204   +34 18 03.56  184424 .98518  56.6 19??  35.24  24.4 
2015 12 03 02  17 00 39.708   +34 53 37.09  166323 .98525  57.2 19??  43.32  24.6 
2015 12 03 03  17 02 19.094   +35 37 49.78  148061 .98532  58.0 19??  54.66  24.8 
2015 12 03 04  17 04 29.358   +36 34 26.05  129599 .98539  59.0 18??  71.34  25.1 
2015 12 03 05  17 07 28.332   +37 49 45.99  110884 .98546  60.3 18.4  97.46  25.6 
2015 12 03 06  17 11 51.488   +39 35 32.92   91833 .98554  62.2 17.9  142.1  26.3 
2015 12 03 07  17 19 01.908   +42 16 22.07   72319 .98561  65.1 17.2  229.1  27.4 
2015 12 03 08  17 33 15.951   +46 54 43.04   52125 .98569  70.1 16.1  441.0  29.9 
2015 12 03 09  18 18 34.372   +57 08 17.04   30879 .98578  82.0 14.4   1256  38.9 
2015 12 03 10  02 37 58.088   +44 42 58.75   10293 .98586 146.8 Sha   11308 151.4 
2015 12 03 11  07 21 06.315   -64 37 28.39   24441 .98579  87.7 13.6   2006 127.4 
2015 12 03 12  10 20 19.725   -70 02 10.61   46055 .98569  70.7 15.8  564.8  85.7 
2015 12 03 13  11 32 22.123   -68 35 12.01   66509 .98559  64.5 17.0  270.8  68.8 
2015 12 03 14  12 05 49.485   -67 06 38.65   86192 .98550  61.2 17.8  161.3  61.1 
2015 12 03 15  12 24 44.192   -65 58 31.81  105360 .98541  59.1 18??  107.9  56.7 
2015 12 03 16  12 36 51.916   -65 06 29.40  124163 .98532  57.6 18??  77.72  53.9 
2015 12 03 17  12 45 18.775   -64 25 49.69  142691 .98523  56.6 19??  58.85  52.0 
2015 12 03 18  12 51 32.598   -63 53 16.66  161006 .98515  55.8 19??  46.23  50.6 
2015 12 03 19  12 56 20.068   -63 26 39.26  179149 .98506  55.1 19??  37.34  49.5 
2015 12 03 20  13 00 08.266   -63 04 28.57  197152 .98498  54.6 20??  30.83  48.7 
2015 12 03 21  13 03 13.986   -62 45 42.73  215038 .98489  54.2 20??  25.92  48.0 
2015 12 03 22  13 05 48.200   -62 29 37.52  232823 .98481  53.8 20??  22.12  47.4 
2015 12 03 23  13 07 58.385   -62 15 40.60  250522 .98473  53.5 20??  19.10  46.9 
2015 12 04 00  13 09 49.814   -62 03 27.75  268146 .98464  53.2 20??  16.68  46.5 
2015 12 04 01  13 11 26.315   -61 52 40.52  285704 .98456  53.0 21??  14.69  46.2